Weather History for Aspen, CO

Change the Weather History Date:

Friday, November 22, 2013

  Actual Average Record
Temperature  
Mean Temperature 27 °F 26 °F  
Max Temperature 30 °F 38 °F 66 °F (1989)
Min Temperature 24 °F 15 °F 0 °F (2007)
Degree Days  
Heating Degree Days 38 39  
Month to date heating degree days 715 745  
Since 1 July heating degree days 1920 2000  
Cooling Degree Days 0 0  
Month to date cooling degree days 0 0  
Year to date cooling degree days 69 39  
Moisture  
Dew Point 24 °F    
Average Humidity 89    
Maximum Humidity 100    
Minimum Humidity 78    
Precipitation  
Precipitation T in 0.04 in 0.27 in (2001)
Month to date precipitation 0.96 1.07  
Year to date precipitation 15.16 15.82  
Sea Level Pressure  
Sea Level Pressure 30.27 in    
Wind  
Wind Speed 4 mph (North)    
Max Wind Speed 9 mph    
Max Gust Speed 12 mph    
Visibility 9 miles    
Events Snow    
T = Trace of Precipitation, MM = Missing Value Source: NWS Daily Summary

Daily Weather History Graph

Daily Weather History Graph

Search for Another Location

Airport:

Trip Planner

Search our weather history database for the weather conditions in past years. The results will help you decide how hot, cold, wet, or windy it might be!

Date:

Astronomy

Nov. 22, 2013 Rise Set
Actual Time 6:58 AM MST 4:48 PM MST
Civil Twilight 6:29 AM MST 5:17 PM MST
Nautical Twilight 5:57 AM MST 5:50 PM MST
Astronomical Twilight 5:25 AM MST 6:22 PM MST
Moon 9:22 PM MST 10:44 AM MST
Length of Visible Light 10h 47m
Length of Day
9h 49m
Waning Gibbous, 77% of the Moon is Illuminated
Nov 22
Waning Gibbous
Nov 25
Last Quarter
Dec 2
New
Dec 9
First Quarter
Dec 17
Full

Hourly Weather History & Observations

Time (MST) Temp. Windchill Dew Point Humidity Pressure Visibility Wind Dir Wind Speed Gust Speed Precip Events Conditions
12:06 AM 26.6 °F 19.1 °F 24.8 °F 93% 30.24 in 10.0 mi NNE 6.9 mph - N/A   Overcast
12:19 AM 26.6 °F 18.2 °F 24.8 °F 93% 30.24 in 10.0 mi North 8.1 mph - N/A   Overcast
12:49 AM 24.8 °F 16.9 °F 24.8 °F 100% 30.25 in 10.0 mi NNE 6.9 mph - N/A   Overcast
12:53 AM 25.0 °F 17.1 °F 24.1 °F 96% 30.19 in 10.0 mi NNE 6.9 mph - N/A   Overcast
1:53 AM 25.0 °F 19.3 °F 23.0 °F 92% 30.21 in 10.0 mi North 4.6 mph - N/A   Overcast
2:09 AM 24.8 °F 19.1 °F 23.0 °F 93% 30.26 in 10.0 mi North 4.6 mph - N/A   Overcast
2:53 AM 25.0 °F 19.3 °F 23.0 °F 92% 30.22 in 10.0 mi North 4.6 mph - N/A   Overcast
3:53 AM 25.0 °F 18.1 °F 21.9 °F 88% 30.22 in 10.0 mi North 5.8 mph - N/A   Overcast
4:49 AM 24.8 °F 20.5 °F 21.2 °F 86% 30.27 in 10.0 mi North 3.5 mph - N/A   Overcast
4:53 AM 25.0 °F 19.3 °F 21.9 °F 88% 30.23 in 10.0 mi North 4.6 mph - N/A   Overcast
5:41 AM 24.8 °F - 21.2 °F 86% 30.27 in 10.0 mi Calm Calm - N/A   Overcast
5:53 AM 25.0 °F 19.3 °F 21.0 °F 85% 30.24 in 10.0 mi NNE 4.6 mph - N/A   Overcast
6:02 AM 24.8 °F 19.1 °F 21.2 °F 86% 30.28 in 10.0 mi NE 4.6 mph - N/A   Overcast
6:53 AM 25.0 °F 20.7 °F 21.9 °F 88% 30.28 in 10.0 mi NNW 3.5 mph - N/A   Overcast
7:53 AM 25.0 °F - 21.0 °F 85% 30.29 in 10.0 mi Calm Calm - N/A   Overcast
8:21 AM 24.8 °F - 21.2 °F 86% 30.31 in 10.0 mi Calm Calm - N/A   Overcast
8:53 AM 26.1 °F 20.5 °F 21.9 °F 84% 30.28 in 10.0 mi North 4.6 mph - N/A   Overcast
8:57 AM 26.6 °F 21.2 °F 21.2 °F 80% 30.31 in 10.0 mi North 4.6 mph - N/A   Overcast
9:19 AM 26.6 °F 20.0 °F 21.2 °F 80% 30.31 in 10.0 mi North 5.8 mph - N/A   Overcast
9:53 AM 27.0 °F 21.6 °F 23.0 °F 85% 30.29 in 10.0 mi North 4.6 mph - N/A   Overcast
9:56 AM 26.6 °F 22.6 °F 23.0 °F 86% 30.32 in 10.0 mi NNW 3.5 mph - N/A   Overcast
10:53 AM 27.0 °F 23.0 °F 23.0 °F 85% 30.32 in 10.0 mi North 3.5 mph - N/A   Overcast
11:53 AM 27.0 °F 23.0 °F 24.1 °F 89% 30.30 in 10.0 mi NNW 3.5 mph - N/A   Overcast
12:53 PM 30.0 °F - 25.0 °F 82% 30.26 in 10.0 mi Calm Calm - N/A   Mostly Cloudy
1:53 PM 30.0 °F 25.2 °F 25.0 °F 82% 30.24 in 10.0 mi North 4.6 mph - N/A   Overcast
2:53 PM 30.0 °F 26.5 °F 25.0 °F 82% 30.24 in 10.0 mi NNW 3.5 mph - N/A   Overcast
3:53 PM 28.9 °F 23.9 °F 26.1 °F 89% 30.27 in 3.0 mi NNW 4.6 mph - 0.00 in   Overcast
4:53 PM 28.0 °F 24.2 °F 27.0 °F 96% 30.26 in 3.0 mi North 3.5 mph - 0.00 in   Overcast
5:53 PM 28.0 °F 21.7 °F 27.0 °F 96% 30.27 in 3.0 mi NNW 5.8 mph - 0.00 in   Overcast
6:19 PM 28.4 °F 23.3 °F 26.6 °F 93% 30.27 in 1.8 mi NNW 4.6 mph - 0.00 in Snow Light Snow
6:53 PM 27.0 °F - 27.0 °F 100% 30.27 in 3.0 mi Calm Calm - 0.00 in   Overcast
7:53 PM 27.0 °F 19.5 °F 27.0 °F 100% 30.28 in 3.0 mi NW 6.9 mph - 0.00 in Snow Light Snow
8:00 PM 26.6 °F 20.0 °F 26.6 °F 100% 30.27 in 2.0 mi NNW 5.8 mph - 0.00 in Snow Light Snow
8:08 PM 26.6 °F 21.2 °F 26.6 °F 100% 30.28 in 4.0 mi NNW 4.6 mph - 0.00 in Snow Light Snow
8:14 PM 26.6 °F 20.0 °F 26.6 °F 100% 30.28 in 6.0 mi North 5.8 mph - 0.00 in Snow Light Snow
8:48 PM 26.6 °F 22.6 °F 26.6 °F 100% 30.28 in 10.0 mi NNW 3.5 mph - 0.00 in   Overcast
8:53 PM 27.0 °F 21.6 °F 27.0 °F 100% 30.27 in 10.0 mi NNW 4.6 mph - 0.00 in   Overcast
8:57 PM 26.6 °F 21.2 °F 26.6 °F 100% 30.28 in 10.0 mi North 4.6 mph - N/A   Overcast
9:24 PM 26.6 °F 21.2 °F 26.6 °F 100% 30.28 in 10.0 mi North 4.6 mph - N/A   Overcast
9:48 PM 26.6 °F 21.2 °F 26.6 °F 100% 30.28 in 10.0 mi NW 4.6 mph - N/A   Overcast
9:53 PM 27.0 °F 23.0 °F 26.1 °F 96% 30.27 in 10.0 mi NNW 3.5 mph - N/A   Overcast
10:53 PM 26.1 °F 18.4 °F 26.1 °F 100% 30.26 in 10.0 mi North 6.9 mph - N/A   Overcast
11:53 PM 26.1 °F 19.4 °F 26.1 °F 100% 30.28 in 10.0 mi North 5.8 mph - N/A   Overcast